{"data":{"norad_id":52454,"epoch":"2026-09-20T01:05:30.621120Z","epoch_age_seconds":98967,"freshness":"FRESH","line1":"1 52454U 22049D   26263.04549330  .00000573  00000+0  27321-4 0  9997","line2":"2 52454  53.1596 271.6435 0001288  75.1047 285.0098 15.35404476241516","mean_motion":15.35404476,"eccentricity":0.0001288,"inclination_deg":53.1596,"raan_deg":271.6435,"arg_perigee_deg":75.1047,"mean_anomaly_deg":285.0098,"bstar":2.7321e-5,"rev_number":24151,"period_min":93.786361998335,"perigee_km":458.83863769761,"apogee_km":460.6000694943,"semimajor_km":6837.856353596,"source":"CELESTRAK","updated_at":"2026-09-20T09:00:40.032071Z"}}